Temperature
14 14 14 15 18 19 20 21 20 20 20 19 19 20 21 22 22 21 15 15 15 15 15 15 15 16 16 16 16 16 16 16 16 16 16 16 16 16 16 16 16 16 16 16 16 16 16 16 16
13 14 14 16 18 19 20 20 19 20 19 17 17 18 20 19 17 15 14 15 14 15 15 15 15 15 16 16 16 16 16 16 16 16 16 16 16 15 15 15 15 15 16 16 16 16 16 16 15
13 13 14 17 18 20 20 19 19 18 16 17 17 17 18 18 15 14 14 14 14 14 14 15 15 15 15 15 15 15 16 15 15 15 15 15 15 15 15 15 15 15 15 15 15 15 15 16 15
13 13 15 17 18 19 19 19 18 17 16 16 17 17 16 14 14 14 14 14 14 14 14 14 15 15 15 15 15 15 15 15 15 15 15 15 15 15 15 15 15 15 15 15 15 15 15 15 15
12 14 16 16 17 18 17 17 16 18 17 16 17 17 16 14 14 14 14 14 14 14 14 14 15 15 15 15 15 15 15 15 15 15 15 15 15 15 15 15 15 15 15 15 15 15 15 15 15
13 15 16 17 17 17 17 15 16 17 17 16 16 17 15 14 13 13 14 14 14 14 14 14 14 14 14 15 15 15 15 15 15 15 14 14 14 14 14 14 14 14 14 14 14 15 15 15 15
14 15 16 16 16 16 16 15 16 16 16 16 15 16 15 13 13 13 13 13 14 14 14 14 14 14 14 14 14 14 14 14 14 14 14 14 14 14 14 14 14 14 14 14 14 14 14 14 14
12 14 14 15 16 16 15 14 14 15 16 14 14 16 15 13 13 13 13 13 13 14 14 14 14 14 14 14 14 14 14 14 14 14 14 14 14 14 14 14 14 14 14 14 14 14 14 14 14
11 14 15 15 15 15 14 14 13 13 13 13 13 13 13 13 13 13 13 13 13 13 13 13 13 14 14 14 14 14 14 14 14 14 14 14 13 13 13 14 14 14 14 14 14 14 14 14 14
12 14 14 14 14 14 13 13 13 13 14 13 13 12 13 13 12 12 12 12 13 13 13 13 13 13 14 14 14 14 13 13 13 13 13 13 13 13 13 13 13 13 13 13 13 13 13 13 13
12 13 13 12 12 12 12 12 12 14 14 14 13 12 12 12 12 12 12 12 12 12 13 13 13 13 13 13 13 13 13 13 13 13 13 13 13 13 13 13 13 13 13 13 13 13 13 13 13
12 11 11 11 10 11 12 12 12 12 13 12 12 12 12 12 12 12 12 12 12 12 12 13 13 13 13 13 13 13 13 13 13 13 13 13 13 13 13 13 13 13 13 13 13 13 12 12 12
12 11 10 10 10 10 11 11 12 12 11 11 12 12 12 12 12 11 11 11 12 12 12 12 12 12 12 12 13 13 13 12 12 13 13 12 12 12 12 12 12 12 12 12 12 12 12 12 12
11 11 10 10 10 10 11 11 11 11 11 11 11 11 11 11 11 11 11 11 11 11 12 12 12 12 12 12 12 12 12 12 12 12 12 12 12 12 12 12 12 12 12 12 12 12 12 12 12
10 11 12 11 11 10 11 12 12 11 10 11 11 10 10 11 11 11 11 11 11 11 11 11 11 11 12 12 12 12 12 12 12 12 12 12 12 12 12 12 12 12 12 12 11 11 11 11 11
11 12 12 12 11 11 11 13 13 10 10 11 10 10 10 10 10 10 11 11 11 11 11 11 11 11 11 11 11 11 11 11 11 11 11 11 11 12 11 11 11 11 11 11 11 11 11 11 11
12 12 12 12 11 11 12 12 12 10 10 11 11 10 10 9 10 10 10 10 10 11 11 11 11 11 11 11 11 11 11 11 11 11 11 11 11 11 11 11 11 11 11 11 11 11 10 10 10
12 12 12 12 11 11 12 12 12 11 10 11 11 10 9 9 9 9 10 10 10 10 10 10 10 10 10 10 11 11 11 11 11 11 11 11 11 11 11 11 11 11 10 10 10 10 10 10 10
11 11 12 12 11 11 11 12 12 11 10 10 10 10 9 9 9 9 9 10 10 10 10 10 10 10 10 10 10 10 10 10 10 10 10 10 10 10 10 10 10 10 10 10 10 10 9 9 9
11 11 11 11 10 11 11 11 12 11 10 10 10 10 9 9 8 9 9 9 9 10 10 10 10 10 10 10 10 10 10 10 10 10 10 10 10 10 10 10 10 10 9 9 9 9 9 9 8
10 11 11 10 10 10 11 13 12 11 10 10 9 9 9 8 8 8 9 9 9 9 10 10 10 9 9 9 9 9 9 9 10 9 9 9 9 9 9 9 9 9 9 9 9 9 8 8 8
10 9 9 9 11 11 11 12 13 11 11 11 10 9 9 8 8 8 9 9 9 9 9 9 9 9 9 9 9 9 9 9 9 9 9 9 9 9 9 9 9 8 8 8 8 8 8 8 7
9 8 9 9 10 10 11 11 13 11 11 11 11 9 8 8 8 8 9 9 9 9 9 9 9 9 9 9 9 8 8 8 8 8 8 8 8 8 8 8 8 8 8 8 8 8 8 7 7
8 9 9 9 10 10 10 11 13 12 11 11 11 9 8 8 8 8 8 8 9 9 9 8 8 8 8 8 8 8 8 8 8 8 8 8 8 8 8 8 8 8 8 7 7 7 7 7 7
9 10 10 10 10 11 9 10 12 12 11 11 10 9 8 8 8 8 8 8 8 8 8 8 8 8 8 8 8 8 8 8 8 7 7 7 7 7 7 7 7 7 7 7 7 7 7 6 6
9 9 10 11 11 12 9 10 12 10 9 9 9 8 8 8 8 8 8 8 8 8 8 8 8 8 8 8 7 7 7 7 7 7 7 7 7 7 7 7 7 7 7 7 7 6 6 6 6
9 9 9 9 8 10 12 11 12 10 10 9 9 8 8 7 7 7 7 8 8 8 8 8 8 8 7 7 7 7 7 7 7 7 7 7 6 6 6 6 6 6 6 6 6 6 6 5 5
8 8 8 9 9 11 12 12 12 10 10 10 9 9 8 7 7 7 7 7 7 8 7 7 7 7 7 7 7 7 7 7 6 6 6 6 6 6 6 6 6 6 6 6 5 5 5 5 5
7 8 8 9 9 10 11 12 11 10 10 9 9 8 7 7 7 7 7 7 7 7 7 7 7 7 7 7 7 7 6 6 6 6 6 6 6 6 5 5 5 5 5 5 5 5 4 4 4
7 8 8 9 8 8 9 11 10 9 9 8 8 7 7 7 7 7 7 7 7 7 7 7 7 7 6 6 6 6 6 6 6 6 5 5 5 5 5 5 5 5 4 4 4 4 4 4 4
Wind_Speed
6 4 2 2 5 6 12 9 6 6 6 4 3 4 6 6 4 1 4 6 9 11 12 13 12 11 11 10 10 10 10 10 9 9 8 8 7 7 7 7 7 6 6 6 6 6 6 6 6
4 2 2 3 7 11 11 9 9 7 3 2 3 4 4 4 1 4 5 7 9 10 12 12 13 11 11 10 10 9 9 9 9 8 8 7 7 7 7 7 6 6 6 6 6 5 5 5 5
1 1 3 4 8 13 10 6 5 3 2 3 3 3 3 2 3 3 4 8 10 10 11 12 12 11 11 10 9 9 8 9 9 8 7 7 6 6 6 6 6 6 5 5 5 4 4 4 4
1 2 2 6 12 10 7 4 3 4 3 3 3 3 2 1 1 2 6 9 9 9 10 12 12 11 11 10 9 9 8 8 8 8 7 7 6 6 6 5 5 5 4 4 4 4 4 3 2
1 3 5 8 11 8 5 4 5 6 4 3 4 3 3 1 2 4 6 8 9 9 9 11 11 11 10 10 9 8 8 8 8 7 7 7 6 6 6 5 5 4 3 3 3 3 3 2 2
2 3 6 10 10 6 5 4 5 6 5 4 4 4 2 2 4 5 6 7 8 8 8 10 11 11 10 10 9 8 8 8 8 7 7 6 7 6 5 5 4 4 3 2 2 2 2 1 1
3 3 6 8 8 7 5 4 6 6 6 5 4 4 3 4 4 5 6 6 7 7 7 8 9 10 11 10 9 9 9 8 7 7 7 7 6 6 5 5 4 3 3 3 1 1 1 0 0
1 2 5 6 8 7 4 3 4 6 5 2 4 5 3 4 5 5 6 6 6 6 6 7 8 8 9 9 10 9 9 8 8 7 6 6 6 5 5 4 4 3 3 3 3 1 1 1 1
2 4 6 6 6 5 3 4 3 2 4 4 4 4 2 5 6 7 7 6 5 5 5 5 6 7 7 8 8 8 8 7 6 6 5 4 3 3 3 4 4 3 3 3 3 2 1 1 1
2 4 5 3 4 4 4 5 4 4 5 6 5 3 2 7 8 9 9 7 6 5 4 4 5 5 6 6 6 6 5 5 4 4 3 2 2 2 2 3 3 2 2 1 2 2 2 3 2
1 3 3 3 3 4 5 5 4 5 6 7 6 5 6 8 8 8 8 7 5 4 4 3 4 4 4 4 4 4 4 4 3 3 2 2 1 1 1 1 1 0 1 1 2 3 2 3 2
1 2 3 3 4 4 5 4 4 6 6 5 5 5 7 8 8 8 7 6 4 3 3 3 3 3 3 3 3 3 3 3 2 2 2 1 1 1 1 1 1 1 1 2 2 3 3 3 3
2 1 2 3 3 4 4 6 6 6 6 4 3 5 7 8 7 6 6 5 5 4 3 3 3 3 3 3 3 3 3 3 3 2 2 2 1 1 1 1 1 2 2 2 3 3 3 3 3
0 1 2 3 3 3 4 6 5 6 4 3 3 5 6 6 6 5 5 5 5 4 3 2 2 3 3 3 2 2 3 3 2 2 2 1 1 1 1 1 1 2 2 3 3 3 3 3 2
1 1 2 2 2 2 4 5 6 5 3 3 4 4 5 4 5 5 5 5 5 4 3 3 2 2 3 3 3 3 2 2 2 1 1 1 1 0 1 1 1 2 3 3 3 3 2 2 2
1 1 2 2 3 2 4 6 3 3 3 4 3 4 4 4 4 4 4 4 4 4 4 3 2 2 2 2 2 2 2 2 1 1 1 0 0 0 1 1 1 2 2 2 2 2 2 2 2
0 2 3 2 3 2 3 6 4 2 2 3 3 4 4 4 3 3 3 3 3 4 4 4 3 3 2 2 2 2 2 2 1 1 1 1 0 1 1 1 1 2 2 2 2 2 2 2 2
1 2 3 3 4 4 4 6 6 3 2 3 3 3 4 4 3 2 3 3 3 3 4 4 3 3 2 2 2 2 1 1 1 1 1 2 1 1 1 1 1 1 1 1 2 2 2 2 2
1 2 4 4 4 4 6 8 7 4 3 3 3 3 3 3 3 3 3 3 4 4 3 3 3 2 2 2 2 2 1 1 1 1 1 1 1 2 2 1 1 1 1 1 2 2 1 1 2
2 3 4 4 4 4 6 8 5 3 3 3 3 3 3 3 3 3 3 3 3 3 3 3 3 3 2 1 1 1 1 1 1 1 1 0 0 1 2 2 1 1 1 1 1 2 1 1 1
3 4 5 6 6 3 5 5 3 1 2 1 2 2 2 3 4 4 4 3 3 3 3 2 2 2 2 2 1 1 1 1 2 2 1 1 1 1 1 2 1 1 1 2 2 2 2 2 1
4 2 4 5 5 3 3 4 3 2 2 2 1 2 2 2 3 3 3 3 3 2 2 2 2 2 2 2 2 2 2 2 2 2 2 2 1 1 1 2 2 2 1 2 2 2 2 2 2
2 3 4 4 3 3 2 4 4 2 4 3 2 2 2 2 3 3 3 3 2 2 2 2 2 2 2 2 2 3 2 2 1 2 2 2 2 2 2 2 2 2 2 2 2 2 2 2 3
2 2 2 2 2 3 3 4 4 3 5 4 3 2 2 2 3 3 3 2 2 2 2 2 2 2 2 2 3 3 3 3 3 3 3 3 2 2 2 2 2 2 2 2 2 2 2 2 3
1 2 2 1 2 3 0 4 5 2 3 4 4 3 2 2 3 3 3 2 2 2 2 2 3 2 2 3 3 3 3 4 4 4 4 3 2 2 2 3 3 2 2 2 2 2 3 3 4
1 2 2 3 3 3 2 5 3 1 2 3 3 2 1 2 3 3 3 3 3 3 3 3 3 3 3 3 3 3 3 3 3 4 3 3 3 3 3 3 3 3 3 3 3 2 3 3 4
1 1 1 1 2 4 4 4 4 1 1 1 1 1 1 1 2 2 3 3 3 3 3 3 4 3 3 3 3 3 3 4 4 3 4 3 3 3 3 3 4 4 3 3 3 2 3 3 4
2 1 2 2 3 4 4 4 3 2 3 2 1 1 1 1 1 2 2 3 2 2 3 3 4 4 4 4 4 3 4 4 4 3 4 4 3 3 3 3 3 3 3 3 3 3 3 3 4
2 2 2 2 3 3 4 3 1 2 3 2 2 1 2 2 2 2 2 2 2 2 2 3 3 3 3 4 4 4 4 3 4 4 4 4 3 3 3 3 3 3 3 3 3 4 3 3 4
4 4 4 3 4 4 4 4 2 2 2 3 3 3 3 3 2 2 2 2 2 3 3 3 3 3 4 4 4 4 4 4 4 4 4 4 4 4 4 3 3 3 4 4 4 4 4 4 4
Wind_Direction
328 322 271 213 208 223 230 220 214 198 201 212 209 218 221 211 210 130 96 140 143 144 144 144 139 135 131 131 128 126 123 122 122 123 122 121 119 115 110 107 104 99 95 93 92 87 84 86 84
321 301 214 208 222 224 225 218 213 211 193 168 202 212 211 210 84 92 126 141 146 143 145 143 138 136 133 131 132 131 129 126 124 123 122 123 121 117 111 107 103 97 92 90 91 88 84 83 84
291 279 214 203 224 230 222 194 202 197 197 208 201 221 229 187 127 121 121 146 146 143 145 139 139 138 135 131 131 134 132 128 124 122 119 117 120 120 116 110 105 100 95 91 92 91 88 87 84
239 193 210 223 226 231 234 205 193 183 197 214 219 200 179 67 102 115 134 147 143 143 145 140 142 142 138 133 130 131 132 130 127 124 125 123 118 121 116 109 106 104 100 94 93 92 93 96 92
226 210 208 223 231 236 239 231 209 213 215 218 231 228 209 127 99 131 143 149 146 143 143 144 142 141 139 136 134 129 131 131 128 125 123 125 119 108 102 98 91 92 102 102 96 93 92 85 84
189 211 220 226 230 234 230 226 222 234 236 239 236 230 216 150 141 142 148 150 145 142 142 145 140 137 136 131 127 125 121 123 122 120 119 117 115 107 98 92 88 81 69 77 94 88 88 75 71
214 211 230 231 234 236 230 222 229 235 238 240 241 225 202 178 154 150 153 147 141 140 142 143 147 144 137 132 127 120 113 110 111 111 111 111 109 104 96 90 82 73 65 44 54 78 60 18 272
247 210 219 224 231 241 228 229 244 244 248 254 238 227 214 186 160 153 150 143 134 132 135 141 143 147 145 135 122 117 111 107 104 105 107 111 115 111 101 95 77 65 56 45 29 45 23 356 299
240 226 228 229 235 246 229 238 250 262 237 236 241 271 294 155 164 160 155 148 141 132 126 132 138 137 141 137 129 125 117 112 116 112 114 130 133 127 120 84 70 60 51 41 22 3 6 301 232
219 228 242 260 263 262 255 260 254 231 233 238 235 247 181 167 177 176 173 169 163 152 139 137 137 136 136 137 138 135 132 128 123 119 127 134 128 110 110 109 92 71 47 39 15 333 268 265 265
209 231 258 272 285 278 258 263 254 240 244 243 238 219 187 180 185 188 180 172 165 160 148 137 132 133 136 138 137 130 130 127 121 112 117 129 135 130 126 130 133 262 301 319 326 292 290 290 295
198 261 269 278 299 282 266 261 254 251 261 286 270 215 185 186 191 193 181 169 159 154 148 135 127 121 126 130 131 124 120 112 98 92 91 90 69 40 31 16 352 317 310 323 317 307 300 294 289
229 263 313 309 300 288 275 260 261 266 272 278 244 198 194 194 195 193 181 169 161 158 149 136 123 118 118 119 127 122 111 102 95 83 78 72 66 47 32 13 3 342 330 324 321 309 304 296 297
200 274 314 319 297 283 274 271 257 266 266 237 204 199 198 191 183 181 179 177 171 166 156 132 125 124 121 120 116 109 105 103 92 83 78 80 63 28 358 350 353 348 333 325 312 307 297 293 295
243 272 328 331 309 293 283 269 250 270 252 230 215 195 182 178 174 187 185 178 172 166 153 147 141 134 129 122 112 104 103 108 94 85 76 79 74 354 316 313 323 333 324 319 310 307 300 290 289
203 240 294 349 333 300 258 265 284 297 240 227 198 178 171 169 170 179 178 171 167 161 155 153 149 139 130 126 119 118 114 105 91 67 57 72 68 317 292 291 304 324 322 324 311 308 299 294 297
128 283 291 323 348 315 256 274 302 319 241 211 184 169 161 155 150 159 157 160 161 161 157 150 145 143 138 139 136 132 134 122 108 75 12 343 300 274 272 282 307 321 327 325 315 313 303 298 307
275 291 293 301 340 321 280 282 297 294 254 238 200 171 164 164 160 153 140 139 146 149 150 146 143 142 139 145 145 135 134 132 128 103 52 9 338 281 264 253 296 319 306 319 322 317 312 300 313
296 282 293 306 326 309 285 288 292 288 256 241 223 190 178 170 156 143 141 137 136 135 140 143 142 143 150 162 171 169 184 189 186 147 66 33 2 326 291 266 255 279 287 309 321 309 290 324 330
275 287 297 315 338 311 291 288 283 269 247 249 235 211 188 174 162 158 151 140 146 144 145 144 153 154 163 175 167 181 189 212 216 211 211 283 346 340 321 289 260 258 266 277 310 311 278 290 314
304 291 303 308 313 283 298 277 235 235 245 248 239 227 205 196 192 176 167 165 160 155 156 160 162 161 167 163 140 140 174 202 212 218 225 241 250 252 289 306 283 278 271 268 282 297 274 259 261
287 314 302 303 303 296 319 289 250 238 242 228 214 208 210 200 193 186 183 184 179 172 162 165 168 172 171 175 184 194 224 240 248 249 237 236 240 240 255 279 270 267 272 278 282 297 270 251 249
295 318 293 287 279 280 258 260 265 189 229 231 229 226 219 202 193 191 189 193 184 169 163 170 176 181 182 193 203 214 224 242 249 250 240 243 245 255 254 258 259 255 266 280 284 287 263 249 250
279 286 271 237 245 259 245 245 264 209 226 229 225 241 231 197 185 185 176 170 166 159 163 178 187 194 199 208 213 221 230 232 234 245 252 253 248 251 259 253 249 253 258 272 274 275 268 253 248
302 295 297 258 243 259 255 252 259 256 245 239 233 240 245 205 188 182 178 178 176 178 187 197 204 213 217 218 223 231 237 240 243 253 258 261 259 256 257 254 251 253 251 248 257 263 270 262 248
275 281 287 290 288 297 246 251 270 331 282 263 243 232 215 189 186 191 195 198 198 200 205 208 216 227 230 231 238 241 240 243 248 250 256 258 262 265 259 253 250 252 254 245 238 246 257 255 245
223 210 297 273 287 274 256 269 279 193 237 220 189 182 189 196 197 201 203 202 204 209 218 219 222 231 236 237 242 246 244 245 251 258 260 258 255 260 255 250 247 248 250 253 246 244 255 244 240
292 193 192 227 277 277 276 265 266 230 220 214 210 240 295 287 243 223 217 216 218 220 224 221 227 233 239 241 242 248 250 251 252 252 251 252 254 254 253 251 248 250 248 249 248 246 251 244 238
186 200 223 233 261 274 286 278 347 247 230 229 246 271 294 292 270 250 239 234 234 229 223 221 230 236 243 247 250 251 254 256 254 250 253 254 250 248 248 248 250 255 256 254 247 247 250 249 246
243 237 216 242 245 241 271 280 73 260 258 250 256 271 288 282 266 253 243 235 236 237 232 231 236 241 247 252 254 255 257 255 254 256 256 255 254 251 251 249 249 253 257 257 254 251 251 253 254
Height
1518 1519 1521 1523 1523 1517 1509 1507 1509 1512 1513 1515 1515 1515 1513 1512 1515 1520 1520 1519 1521 1523 1525 1527 1529 1531 1532 1534 1535 1535 1536 1536 1537 1537 1538 1538 1538 1539 1539 1539 1539 1539 1540 1540 1540 1540 1540 1540 1540
1518 1519 1522 1523 1516 1512 1507 1506 1510 1511 1514 1516 1516 1516 1515 1515 1517 1518 1517 1518 1521 1523 1525 1527 1529 1531 1532 1533 1534 1535 1535 1536 1536 1537 1537 1538 1538 1538 1538 1538 1539 1539 1539 1539 1539 1540 1540 1540 1540
1518 1519 1522 1518 1512 1506 1504 1508 1510 1514 1516 1517 1516 1516 1516 1516 1517 1517 1517 1519 1521 1524 1526 1527 1529 1530 1532 1533 1534 1534 1535 1535 1536 1536 1537 1537 1537 1538 1538 1538 1538 1538 1538 1539 1539 1539 1539 1539 1539
1519 1521 1521 1517 1510 1506 1506 1509 1512 1514 1516 1517 1516 1516 1516 1517 1517 1517 1517 1519 1521 1524 1525 1527 1529 1530 1531 1532 1533 1534 1534 1535 1535 1536 1536 1536 1537 1537 1537 1537 1537 1537 1538 1538 1538 1538 1538 1538 1538
1518 1520 1517 1513 1509 1509 1510 1512 1513 1513 1514 1515 1516 1514 1515 1516 1515 1516 1517 1519 1521 1523 1525 1527 1528 1530 1531 1532 1533 1533 1534 1534 1535 1535 1535 1536 1536 1536 1536 1537 1537 1537 1537 1537 1537 1537 1537 1537 1537
1520 1518 1513 1510 1508 1510 1512 1514 1513 1513 1514 1515 1516 1514 1515 1515 1515 1516 1517 1519 1521 1523 1524 1526 1528 1529 1530 1531 1532 1533 1533 1534 1534 1534 1535 1535 1535 1535 1536 1536 1536 1536 1536 1536 1536 1535 1535 1535 1535
1519 1515 1511 1508 1508 1510 1512 1514 1514 1513 1513 1515 1515 1514 1514 1515 1515 1515 1517 1519 1521 1522 1524 1525 1527 1529 1530 1531 1531 1532 1533 1533 1533 1534 1534 1534 1535 1535 1535 1535 1535 1535 1535 1534 1534 1534 1534 1534 1533
1518 1517 1513 1510 1509 1509 1512 1514 1514 1513 1512 1514 1515 1513 1513 1514 1513 1515 1516 1518 1520 1521 1523 1524 1526 1528 1529 1530 1530 1531 1532 1532 1533 1533 1533 1534 1534 1534 1534 1534 1534 1533 1533 1533 1533 1532 1532 1532 1532
1518 1517 1511 1509 1510 1510 1513 1513 1513 1513 1513 1513 1512 1513 1513 1512 1513 1514 1515 1517 1519 1520 1522 1523 1525 1526 1527 1529 1529 1530 1531 1531 1532 1532 1532 1533 1533 1533 1533 1533 1532 1532 1532 1531 1531 1531 1530 1530 1530
1518 1514 1511 1513 1512 1511 1512 1512 1512 1512 1511 1511 1511 1511 1511 1511 1512 1513 1514 1516 1517 1519 1521 1522 1524 1525 1526 1527 1528 1529 1530 1530 1531 1531 1531 1532 1532 1532 1531 1531 1531 1531 1530 1530 1529 1529 1529 1528 1528
1517 1514 1514 1514 1514 1513 1512 1512 1512 1510 1509 1509 1509 1509 1509 1510 1511 1512 1513 1515 1516 1518 1519 1521 1522 1524 1525 1526 1527 1528 1529 1529 1530 1530 1530 1530 1530 1530 1530 1530 1529 1529 1529 1528 1527 1527 1527 1526 1526
1517 1516 1515 1515 1514 1514 1513 1512 1511 1509 1508 1508 1508 1508 1508 1509 1510 1510 1512 1514 1515 1516 1518 1520 1521 1522 1524 1525 1526 1526 1527 1528 1528 1528 1528 1529 1529 1528 1528 1528 1527 1527 1527 1526 1525 1525 1525 1524 1524
1516 1516 1516 1515 1514 1513 1512 1511 1510 1508 1507 1507 1506 1507 1507 1507 1509 1510 1511 1512 1514 1515 1516 1518 1520 1521 1522 1523 1524 1525 1525 1526 1527 1527 1527 1527 1527 1527 1526 1526 1525 1525 1524 1524 1523 1523 1522 1522 1522
1516 1516 1515 1514 1513 1512 1511 1509 1509 1506 1505 1505 1505 1505 1505 1506 1507 1508 1509 1511 1513 1514 1515 1517 1519 1520 1521 1522 1523 1523 1524 1524 1525 1525 1525 1525 1525 1525 1524 1524 1523 1523 1522 1522 1521 1521 1520 1520 1519
1517 1515 1513 1513 1512 1512 1511 1506 1505 1505 1504 1504 1504 1503 1503 1505 1506 1507 1508 1510 1512 1513 1514 1516 1517 1518 1520 1520 1521 1521 1522 1523 1523 1523 1523 1523 1523 1523 1522 1522 1521 1521 1520 1519 1519 1518 1518 1517 1516
1515 1512 1511 1512 1512 1511 1512 1503 1503 1504 1503 1502 1502 1502 1503 1505 1506 1507 1508 1509 1511 1512 1513 1515 1516 1517 1518 1519 1519 1520 1520 1520 1521 1521 1521 1521 1521 1520 1520 1520 1519 1518 1518 1517 1517 1516 1515 1515 1514
1512 1511 1509 1510 1512 1510 1509 1503 1502 1502 1502 1502 1502 1502 1503 1504 1505 1506 1507 1509 1510 1511 1512 1513 1514 1515 1516 1517 1518 1518 1518 1518 1519 1519 1519 1518 1519 1518 1518 1517 1517 1516 1515 1515 1514 1513 1513 1512 1511
1512 1510 1510 1509 1510 1510 1507 1503 1502 1502 1502 1501 1501 1502 1502 1503 1504 1505 1506 1508 1509 1510 1511 1512 1513 1514 1515 1516 1516 1516 1516 1516 1517 1517 1517 1516 1516 1516 1516 1515 1514 1514 1513 1512 1512 1511 1510 1510 1509
1514 1512 1510 1510 1512 1510 1505 1502 1500 1500 1501 1500 1500 1501 1502 1503 1504 1505 1506 1506 1508 1509 1510 1511 1512 1513 1514 1514 1514 1514 1514 1515 1515 1515 1514 1514 1514 1513 1513 1512 1512 1511 1511 1510 1509 1509 1508 1507 1506
1516 1513 1510 1510 1512 1510 1505 1501 1498 1499 1500 1500 1500 1500 1501 1502 1503 1504 1504 1505 1506 1507 1508 1509 1511 1511 1512 1512 1512 1512 1513 1512 1512 1512 1512 1511 1511 1510 1510 1509 1509 1508 1508 1508 1507 1506 1505 1504 1504
1516 1514 1512 1513 1511 1509 1506 1496 1496 1498 1499 1499 1500 1500 1500 1501 1501 1502 1503 1505 1506 1506 1507 1508 1509 1509 1510 1510 1510 1510 1510 1510 1509 1509 1509 1508 1508 1507 1507 1506 1506 1506 1505 1505 1504 1503 1503 1502 1502
1515 1517 1517 1515 1510 1505 1507 1499 1492 1495 1497 1498 1498 1498 1499 1500 1500 1501 1502 1503 1504 1505 1506 1507 1507 1508 1508 1508 1508 1508 1508 1507 1507 1507 1506 1505 1505 1504 1504 1503 1503 1503 1502 1502 1501 1500 1500 1499 1499
1518 1520 1518 1515 1511 1509 1506 1504 1489 1494 1494 1495 1496 1497 1498 1498 1498 1499 1501 1502 1502 1503 1504 1505 1506 1506 1506 1506 1505 1505 1505 1505 1504 1504 1503 1503 1502 1501 1501 1500 1500 1500 1499 1498 1498 1497 1496 1496 1496
1522 1519 1516 1515 1511 1509 1505 1504 1490 1491 1492 1492 1494 1496 1497 1497 1498 1498 1499 1500 1501 1502 1502 1503 1504 1504 1504 1503 1503 1503 1503 1502 1502 1501 1500 1500 1499 1498 1498 1497 1497 1496 1496 1495 1495 1494 1493 1493 1492
1520 1516 1512 1508 1507 1501 1507 1504 1492 1490 1492 1493 1494 1495 1495 1496 1496 1497 1497 1498 1499 1500 1501 1501 1502 1502 1502 1501 1501 1501 1500 1500 1499 1499 1498 1497 1496 1495 1495 1494 1493 1493 1492 1492 1491 1490 1490 1489 1489
1520 1518 1516 1510 1502 1496 1505 1499 1489 1492 1494 1494 1494 1494 1494 1495 1495 1496 1496 1497 1498 1498 1499 1499 1499 1500 1499 1499 1498 1498 1498 1497 1496 1496 1495 1494 1493 1492 1491 1491 1490 1489 1489 1488 1487 1486 1486 1485 1485
1519 1518 1519 1517 1516 1508 1493 1492 1488 1491 1492 1493 1493 1493 1494 1494 1494 1495 1495 1496 1496 1497 1497 1497 1497 1497 1497 1497 1496 1496 1495 1494 1494 1493 1492 1491 1490 1489 1488 1488 1487 1486 1485 1484 1483 1483 1482 1481 1481
1522 1520 1519 1517 1511 1501 1491 1489 1485 1488 1489 1491 1492 1492 1493 1493 1493 1493 1494 1494 1494 1495 1495 1495 1495 1495 1494 1494 1493 1493 1492 1492 1491 1490 1489 1488 1487 1486 1485 1484 1483 1482 1482 1481 1480 1479 1478 1477 1476
1521 1521 1517 1515 1513 1506 1495 1486 1486 1487 1488 1490 1491 1492 1492 1492 1491 1492 1492 1492 1493 1493 1493 1493 1492 1492 1492 1491 1490 1490 1489 1488 1488 1487 1486 1485 1484 1483 1482 1481 1480 1479 1478 1477 1476 1475 1473 1473 1472
1519 1516 1515 1514 1512 1511 1503 1491 1488 1489 1490 1490 1490 1491 1491 1490 1490 1490 1490 1490 1490 1490 1490 1490 1490 1489 1489 1488 1487 1486 1486 1485 1484 1483 1482 1481 1480 1479 1478 1477 1476 1475 1474 1473 1472 1471 1470 1469 1468